Location: Joplin, MO
(37.0842°N, 94.5133°W)
Time: 20:57:43
(UTC+02:00)

Transit 2A Rocket - Pass Details

Date: 31 March 2023
Orbit: 584 x 914 km, 66.7° (Epoch: 06 June)

Event Time Altitude Azimuth Distance (km) Brightness Sun altitude
Rises 19:23:58 0° 254° (WSW) 3,291 8.2 54.6°
Reaches altitude 10° 19:27:08 10° 273° (W) 2,427 7.5 54.8°
Maximum altitude 19:30:53 18° 315° (NW) 1,990 7.0 55.1°
Drops below altitude 10° 19:34:49 10° 357° (N) 2,551 7.5 55.4°
Sets 19:38:17 0° 16° (NNE) 3,528 8.1 55.7°
